COSMOS 1522

Satellite information

Favourite Embed

Satellite Type and Status

PAYLOADIN ORBIT

Key statistics

Satellite COSMOS 1522 at a glance.

Uptime

15102

Days in orbit

Revolutions

≈ 12.5

Per day

Orbit

LEO

Low Earth Orbit

Inclination

74.0

Latest

Satellite identification and parameters

Extended collection of information and parameters for COSMOS 1522.

Object identification

Identified? True

Debris? False

Object name: COSMOS 1522

International designator: 1984-001A

Object number (NORAD): 14611

Object ID (CCSDS): 14611

Country: COMMONWEALTH OF INDEPENDENT STATES (CIS)

Current information (Y/N): Y

RCS size: MEDIUM

Orbital parameters

Period: 115.472 minutes

Inclination: 74.0082 deg

SMA: 7854.96 km

Apoapsis: 1492.128 km

Periapsis: 1461.521 km

RAAN: 235.1545 deg

Eccentricy: 0.0019482

Argument of periapsis: 61.01 deg

Mean anomaly: 53.6196 deg

Mean motion: 12.47058527 rev/day

Mean motion (dot): -0.00000023 rev/day2

B* drag term: -0.00004722 1/REarth

Two-line elements (TLE)

Creation date: May 11, 2025, 2:40 a.m.

Reference frame: TEME

Reference center: EARTH

Epoch: May 10, 2025, 5:20 p.m. UTC

TLE line 0: 0 COSMOS 1522

TLE line 1: 1 14611U 84001A 25130.72231973 -.00000023 00000-0 -47220-4 0 9997

TLE line 2: 2 14611 74.0082 235.1545 0019482 61.0100 53.6196 12.47058527882192

Live tracking on map

Real-time ground track for satellite COSMOS 1522.

In-orbit conjunctions

There are no conjunctions computed for COSMOS 1522, at the moment. Check back to stay up to date, as we update our databases every day.

Go to all conjunctions

Associated space launch

Military communications satellites

COSMOS 1522 was lifted into orbit during the mission ‘Kosmos-3M | Strela-1M 273-280’, on board a Kosmos-3M space rocket.

The launch took place on Jan. 5, 1984, 8:09 p.m. from 132/2.

For more information about the launch, click the button.

Launch to space Kosmos-3M | Strela-1M 273-280
Kosmos-3M | Strela-1M 273-280

Agency: N/A

Status: Launch Successful

Launch date: Jan. 5, 1984, 8:09 p.m. UTC

Rocket: Kosmos-3M

Launch pad: 132/2

Location: Plesetsk Cosmodrome, Russian Federation

...

Latest news about this satellite

There are no fresh news available about this satellite. Check back as we update our databases every day.


Newsletter sign-up

Weekly statistics, charts and insights to help you stay on top of the space industry.